Weather History for Walhalla, ND

Change the Weather History Date:

Friday, November 9, 2012

  Actual Average (KGAF) Record (KGAF)
Temperature  
Mean Temperature 24 °F -  
Max Temperature 26 °F 36 °F 55 °F (1954)
Min Temperature 21 °F 21 °F 1 °F (1966)
Degree Days  
Heating Degree Days 42    
Moisture  
Dew Point 19 °F    
Average Humidity 82    
Maximum Humidity 100    
Minimum Humidity 58    
Precipitation  
Precipitation 0.00 in - - ()
Sea Level Pressure  
Sea Level Pressure 30.21 in    
Wind  
Wind Speed 15 mph (NNE)    
Max Wind Speed 20 mph    
Max Gust Speed 26 mph    
Visibility 9 miles    
Events Snow    
Averages and records for this station are not official NWS values.
T = Trace of Precipitation, MM = Missing Value Source: NWS Daily Summary

Daily Weather History Graph

Daily Weather History Graph

Search for Another Location

Airport:

Trip Planner

Search our weather history database for the weather conditions in past years. The results will help you decide how hot, cold, wet, or windy it might be!

Date:

Astronomy

Nov. 09, 2012 Rise Set
Actual Time 7:32 AM CST 4:57 PM CST
Civil Twilight 6:58 AM CST 5:32 PM CST
Nautical Twilight 6:20 AM CST 6:10 PM CST
Astronomical Twilight 5:43 AM CST 6:47 PM CST
Moon 2:09 AM CST (11/9) 2:32 PM CST (11/9)
Length of Visible Light 10h 33m
Length of Day
9h 25m
Waning Crescent, 23% of the Moon is Illuminated
Nov 9
Waning Crescent
Nov 13
New
Nov 20
First Quarter
Nov 28
Full
Dec 6
Last Quarter

Hourly Weather History & Observations

Time (CST) Temp. Windchill Dew Point Humidity Pressure Visibility Wind Dir Wind Speed Gust Speed Precip Events Conditions
12:15 AM 26.6 °F 14.7 °F 24.8 °F 93% 30.28 in 10.0 mi North 15.0 mph 21.9 mph N/A   Overcast
12:35 AM 26.6 °F 14.3 °F 24.8 °F 93% 30.29 in 10.0 mi North 16.1 mph 20.7 mph N/A   Overcast
12:55 AM 26.6 °F 14.3 °F 24.8 °F 93% 30.29 in 10.0 mi North 16.1 mph 20.7 mph N/A   Overcast
1:15 AM 26.6 °F 13.4 °F 26.6 °F 100% 30.28 in 10.0 mi North 18.4 mph - N/A   Overcast
1:35 AM 26.6 °F 14.3 °F 26.6 °F 100% 30.28 in 10.0 mi NNE 16.1 mph 20.7 mph N/A   Overcast
1:55 AM 24.8 °F 11.1 °F 24.8 °F 100% 30.27 in 10.0 mi North 18.4 mph - N/A   Overcast
2:15 AM 24.8 °F 11.1 °F 24.8 °F 100% 30.26 in 10.0 mi North 18.4 mph 21.9 mph N/A   Overcast
2:35 AM 24.8 °F 11.5 °F 24.8 °F 100% 30.26 in 10.0 mi North 17.3 mph 25.3 mph N/A   Overcast
2:55 AM 24.8 °F 11.1 °F 24.8 °F 100% 30.27 in 10.0 mi North 18.4 mph 23.0 mph N/A   Overcast
3:15 AM 24.8 °F 11.9 °F 24.8 °F 100% 30.27 in 10.0 mi NNE 16.1 mph 23.0 mph N/A   Overcast
3:35 AM 24.8 °F 12.4 °F 24.8 °F 100% 30.27 in 10.0 mi North 15.0 mph 23.0 mph N/A   Overcast
3:55 AM 24.8 °F 12.4 °F 24.8 °F 100% 30.27 in 10.0 mi NNE 15.0 mph - N/A   Overcast
4:15 AM 24.8 °F 12.9 °F 24.8 °F 100% 30.27 in 10.0 mi NNE 13.8 mph 18.4 mph N/A   Overcast
4:35 AM 24.8 °F 12.9 °F 24.8 °F 100% 30.27 in 10.0 mi NNE 13.8 mph - N/A   Overcast
4:55 AM 24.8 °F 14.0 °F 24.8 °F 100% 30.26 in 10.0 mi NNE 11.5 mph 18.4 mph N/A   Overcast
5:15 AM 24.8 °F 12.4 °F 24.8 °F 100% 30.27 in 9.0 mi NNE 15.0 mph - N/A   Overcast
5:35 AM 24.8 °F 12.9 °F 24.8 °F 100% 30.26 in 2.0 mi NNE 13.8 mph - N/A   Overcast
5:55 AM 24.8 °F 12.9 °F 24.8 °F 100% 30.26 in 3.0 mi NNE 13.8 mph - N/A   Overcast
6:15 AM 24.8 °F 12.9 °F 24.8 °F 100% 30.25 in 6.0 mi NE 13.8 mph - N/A Snow Light Snow
6:35 AM 24.8 °F 11.5 °F 24.8 °F 100% 30.25 in 3.0 mi NE 17.3 mph 25.3 mph N/A   Overcast
6:55 AM 24.8 °F 12.9 °F 24.8 °F 100% 30.26 in 5.0 mi NE 13.8 mph 18.4 mph N/A   Mostly Cloudy
7:35 AM 24.8 °F 11.1 °F 24.8 °F 100% 30.26 in 10.0 mi NE 18.4 mph 21.9 mph N/A   Overcast
7:55 AM 23.0 °F 10.1 °F 23.0 °F 100% 30.27 in 10.0 mi NE 15.0 mph 21.9 mph N/A   Overcast
8:15 AM 23.0 °F 11.1 °F 23.0 °F 100% 30.28 in 10.0 mi NE 12.7 mph 19.6 mph N/A   Overcast
8:55 AM 23.0 °F 8.7 °F 19.4 °F 86% 30.28 in 10.0 mi NNE 18.4 mph 21.9 mph N/A   Overcast
9:15 AM 23.0 °F 10.6 °F 17.6 °F 80% 30.29 in 10.0 mi NE 13.8 mph 21.9 mph N/A   Overcast
9:35 AM 21.2 °F 8.3 °F 8.6 °F 58% 30.27 in 10.0 mi NE 13.8 mph 25.3 mph N/A   Overcast
9:55 AM 21.2 °F 6.0 °F 10.4 °F 63% 30.27 in 10.0 mi NE 19.6 mph 26.5 mph N/A   Overcast
10:15 AM 21.2 °F 7.3 °F 10.4 °F 63% 30.28 in 10.0 mi NE 16.1 mph 24.2 mph N/A   Overcast
10:35 AM 21.2 °F 8.9 °F 12.2 °F 68% 30.28 in 10.0 mi NE 12.7 mph 20.7 mph N/A   Overcast
10:55 AM 21.2 °F 6.4 °F 12.2 °F 68% 30.27 in 10.0 mi NNE 18.4 mph 23.0 mph N/A   Overcast
11:15 AM 21.2 °F 7.3 °F 14.0 °F 74% 30.27 in 10.0 mi NE 16.1 mph 20.7 mph N/A   Overcast
11:35 AM 21.2 °F 7.3 °F 12.2 °F 68% 30.27 in 10.0 mi NE 16.1 mph 24.2 mph N/A   Overcast
11:55 AM 21.2 °F 7.3 °F 12.2 °F 68% 30.26 in 10.0 mi NNE 16.1 mph 20.7 mph N/A   Overcast
12:15 PM 21.2 °F 10.1 °F 12.2 °F 68% 30.25 in 10.0 mi NNE 10.4 mph - N/A   Overcast
12:35 PM 21.2 °F 7.8 °F 14.0 °F 74% 30.23 in 10.0 mi NE 15.0 mph 21.9 mph N/A   Overcast
12:55 PM 23.0 °F 10.6 °F 14.0 °F 68% 30.23 in 10.0 mi NNE 13.8 mph 19.6 mph N/A   Overcast
1:15 PM 23.0 °F 9.2 °F 14.0 °F 68% 30.22 in 10.0 mi NNE 17.3 mph 23.0 mph N/A   Overcast
1:35 PM 23.0 °F 9.6 °F 15.8 °F 74% 30.21 in 10.0 mi NE 16.1 mph 24.2 mph N/A   Overcast
1:55 PM 23.0 °F 9.6 °F 15.8 °F 74% 30.21 in 10.0 mi NNE 16.1 mph 20.7 mph N/A   Overcast
2:15 PM 23.0 °F 10.6 °F 15.8 °F 74% 30.21 in 10.0 mi NNE 13.8 mph 18.4 mph N/A   Overcast
2:35 PM 23.0 °F 10.1 °F 17.6 °F 80% 30.21 in 10.0 mi NNE 15.0 mph 19.6 mph N/A   Overcast
2:55 PM 23.0 °F 10.6 °F 17.6 °F 80% 30.20 in 10.0 mi NNE 13.8 mph 19.6 mph N/A   Overcast
3:15 PM 23.0 °F 10.1 °F 17.6 °F 80% 30.21 in 10.0 mi NNE 15.0 mph - N/A   Overcast
3:35 PM 23.0 °F 10.1 °F 17.6 °F 80% 30.21 in 10.0 mi NNE 15.0 mph - N/A   Overcast
3:55 PM 23.0 °F 10.1 °F 17.6 °F 80% 30.21 in 10.0 mi NNE 15.0 mph - N/A   Overcast
4:15 PM 23.0 °F 9.6 °F 17.6 °F 80% 30.18 in 10.0 mi NNE 16.1 mph 20.7 mph N/A   Overcast
4:35 PM 23.0 °F 10.6 °F 17.6 °F 80% 30.18 in 10.0 mi NNE 13.8 mph 21.9 mph N/A   Overcast
4:55 PM 24.8 °F 12.4 °F 17.6 °F 74% 30.18 in 10.0 mi NNE 15.0 mph 21.9 mph N/A   Overcast
5:15 PM 24.8 °F 11.9 °F 17.6 °F 74% 30.17 in 10.0 mi NNE 16.1 mph 23.0 mph N/A   Overcast
5:35 PM 24.8 °F 14.6 °F 17.6 °F 74% 30.17 in 10.0 mi NNE 10.4 mph 17.3 mph N/A   Overcast
5:55 PM 24.8 °F 14.0 °F 17.6 °F 74% 30.16 in 10.0 mi NNE 11.5 mph - N/A   Overcast
6:15 PM 24.8 °F 13.4 °F 17.6 °F 74% 30.16 in 10.0 mi NE 12.7 mph 18.4 mph N/A   Overcast
6:35 PM 24.8 °F 13.4 °F 15.8 °F 69% 30.16 in 10.0 mi NE 12.7 mph 18.4 mph N/A   Overcast
6:55 PM 24.8 °F 12.9 °F 15.8 °F 69% 30.16 in 10.0 mi NE 13.8 mph - N/A   Overcast
7:15 PM 24.8 °F 12.4 °F 15.8 °F 69% 30.14 in 10.0 mi NE 15.0 mph - N/A   Overcast
7:35 PM 24.8 °F 13.4 °F 15.8 °F 69% 30.13 in 10.0 mi NE 12.7 mph - N/A   Overcast
7:55 PM 26.6 °F 15.7 °F 15.8 °F 64% 30.13 in 10.0 mi NE 12.7 mph - N/A   Overcast
8:15 PM 26.6 °F 16.2 °F 15.8 °F 64% 30.11 in 10.0 mi NE 11.5 mph - N/A   Overcast
8:35 PM 26.6 °F 16.2 °F 15.8 °F 64% 30.12 in 10.0 mi NE 11.5 mph 17.3 mph N/A   Overcast
8:55 PM 26.6 °F 16.2 °F 15.8 °F 64% 30.11 in 10.0 mi NE 11.5 mph 18.4 mph N/A   Overcast
9:15 PM 26.6 °F 16.8 °F 15.8 °F 64% 30.11 in 10.0 mi NE 10.4 mph - N/A   Overcast
9:35 PM 26.6 °F 17.5 °F 15.8 °F 64% 30.11 in 10.0 mi NNE 9.2 mph - N/A   Overcast
9:55 PM 26.6 °F 17.5 °F 15.8 °F 64% 30.11 in 10.0 mi NE 9.2 mph - N/A   Overcast
10:15 PM 26.6 °F 16.2 °F 15.8 °F 64% 30.10 in 10.0 mi NNE 11.5 mph - N/A   Overcast
10:35 PM 24.8 °F 14.6 °F 17.6 °F 74% 30.08 in 7.0 mi NNE 10.4 mph - N/A   Overcast
10:55 PM 24.8 °F 13.4 °F 19.4 °F 80% 30.08 in 9.0 mi NNE 12.7 mph 17.3 mph N/A   Mostly Cloudy
11:15 PM 24.8 °F 14.0 °F 19.4 °F 80% 30.07 in 10.0 mi NNE 11.5 mph 17.3 mph N/A   Partly Cloudy
11:35 PM 24.8 °F 15.3 °F 21.2 °F 86% 30.07 in 5.0 mi NNE 9.2 mph - N/A Snow Light Snow
11:55 PM 24.8 °F 15.3 °F 23.0 °F 93% 30.07 in 10.0 mi NNE 9.2 mph - N/A   Scattered Clouds